THORAD DELTA 1 DEB, 9989

Orbit data source: Space-Track

THORAD DELTA 1 DEB, 9989 is space debris in LEO originally from a launch on Fri, 15 Nov 1974 UTC launched from the Air Force Western Test Range (AFWTR). Debris objects in space refer to the collection of defunct objects orbiting the Earth. Examples of debris include non-operational satellites, rocket bodies, and fragments generated from explosions, collisions, or faulty payload assembly.

Loading next visibility...
Identifier
9989, 1974-089EG
Orbit
LEO
Country
Flag of USUS
Related business
Manufacturer
Unknown
Mission
Spacecraft
Bus & Motor
Unknown
Mass
Unknown
Launch date (UTC)
1974-11-15 (51 years ago)
Launch vehicle
Unknown
Launch site
Air Force Western Test Range (AFWTR)
Object type
Payload
Rocket body
Debris
Shape & HBR
Unknown shape, 0.1 m
Radar Cross Section
Small (<0.1 m²)

Expand to show TLE details & history
Last TLE update: 1 day ago

TLE from 1 day ago
0 THORAD DELTA 1 DEB
1  9989U 74089EG  26103.52720823  .00001983  00000-0  12908-1 0  9996
2  9989 103.0590  15.3232 0163353 112.5996  71.0252 12.49000347293422
Epoch: 2026-04-13T12:39Z
TLE epoch observation values (Epoch: 2026-04-13T12:39:10.791Z)
Latitude
-5.39996°
Longitude
162.56154°
Altitude
1,432.264 km
Speed
7.163 km/s
True Right ascension
12h 56m 17s
True Declination
-5° 22' 14"
Sunlit
Object was in full shadow at epoch
Visualization orbit readout
Latitude
Unknown
Longitude
Unknown
Altitude
Unknown
Speed
Unknown
Apparent Right ascension
Unknown
Apparent Declination
Unknown
Sunlit
N/A
Visualization observer readout
Local Sidereal Time
18:54:56
Azimuth
Unknown
Elevation
Unknown
Doppler factor
Unknown
Orbital elements
Apogee altitude
1,594.448 km
Perigee altitude
1,338.166 km
Semi-major axis
7,844.444 km
Eccentricity
0.01634
Inclination
103.059°
RAAN
15.3232°
Arg. of periapsis
112.5996°
True anomaly
72.80691°
Mean anomaly
71.0252°
Eccentric anomaly
71.9149°
Mean motion
3.12392 °/min
Orbital period
115.24 mins
BSTAR
0.012908
Loading maneuver chart data...
Computing Atmospheric mass density...

Documentation

Showing up to 5 results
|